Terminal Aerodrome Forecast
Issued by NWS Sterling, VA

Current Version | Previous Version | Graphics & Text | Print | Product List | Glossary On
Versions: 1 2 3 4 5 6 7 8 9 10 11 12 13 14 15 16 17 18 19 20 21 22 23 24 25 26 27
000
FTUS41 KLWX 192000 AAA
TAFIAD
TAF AMD
KIAD 192058Z 1921/2024 30010G18KT P6SM FEW045
     FM192200 30009KT P6SM FEW250
     FM200200 VRB03KT P6SM FEW250
     FM201400 18008KT P6SM SCT250
     FM202200 19004KT P6SM SCT040 BKN120=

USA.gov is the U.S. government's official web portal to all federal, state and local government web resources and services.